Niaqornaa

KL  EN  DA
ASIAQ
Weather Now GREENLAND SURVEY
Updated [WGT/WGST] Temperature [°C] Wind [m/s] Air pressure [hPa] Relative humidity [%] Precipitation [mm]
Present Wind chill Speed Max
25.02 08:40n/an/an/an/an/an/an/a
25.02 08:30n/an/an/an/an/an/an/a
25.02 08:20n/an/an/an/an/an/an/a
25.02 08:10n/an/an/an/an/an/an/a
25.02 08:00n/an/an/an/an/an/an/a
25.02 07:50n/an/an/an/an/an/an/a
25.02 07:40n/an/an/an/an/an/an/a
25.02 07:30n/an/an/an/an/an/an/a
25.02 07:20n/an/an/an/an/an/an/a
25.02 07:10n/an/an/an/an/an/an/a
25.02 07:00n/an/an/an/an/an/an/a
25.02 06:50n/an/an/an/an/an/an/a
25.02 06:40n/an/an/an/an/an/an/a
25.02 06:30n/an/an/an/an/an/an/a
25.02 06:20n/an/an/an/an/an/an/a
25.02 06:10n/an/an/an/an/an/an/a
25.02 06:00n/an/an/an/an/an/an/a
25.02 05:50n/an/an/an/an/an/an/a
25.02 05:40n/an/an/an/an/an/an/a
25.02 05:30n/an/an/an/an/an/an/a
25.02 05:20n/an/an/an/an/an/an/a
25.02 05:10n/an/an/an/an/an/an/a
25.02 05:00-12,3-15,81,6 ⇒3,3100754n/a
25.02 04:50-12,1-15,51,4 ⇗2,1100856n/a
25.02 04:40-12,6-17,12,0 ⇑2,6100857n/a
25.02 04:30-12,7-18,02,4 ⇑3,1100856n/a
25.02 04:20-12,8-18,22,5 ⇑3,1100854n/a
25.02 04:10-12,5-17,62,3 ⇑3,0100853n/a
25.02 04:00-12,5-18,52,8 ⇑3,8100851n/a
25.02 03:50-12,6-18,73,1 ⇖3,6100851n/a
25.02 03:40-12,5-18,32,9 ⇖3,8100852n/a
25.02 03:30-12,4-18,12,8 ⇖3,9100852n/a
25.02 03:20-12,2-18,73,4 ⇖4,8100851n/a
25.02 03:10-12,4-19,23,8 ⇖4,8100851n/a
25.02 03:00-12,2-18,73,3 ⇖4,4100851n/a
25.02 02:50-12,3-18,93,6 ⇖4,5100851n/a
25.02 02:40-12,2-19,03,6 ⇖4,8100851n/a
25.02 02:30-12,4-19,74,1 ⇖5,5100853n/a
25.02 02:20-12,3-20,04,6 ⇖5,4100853n/a
25.02 02:10-12,4-20,24,9 ⇖6,3100854n/a
25.02 02:00-12,4-20,34,6 ⇖5,8100758n/a
25.02 01:50-12,9-21,45,3 ⇖6,5100864n/a
25.02 01:40-13,1-21,75,6 ⇖6,5100767n/a
25.02 01:30-12,7-21,45,4 ⇖7,1100865n/a
25.02 01:20-12,8-20,74,7 ⇖6,0100866n/a
25.02 01:10-12,8-20,44,4 ⇖5,9100865n/a
25.02 01:00-12,7-20,24,3 ⇖6,0100766n/a
25.02 00:50-12,7-20,14,2 ⇖6,0100767n/a
25.02 00:40-12,6-20,64,9 ⇖6,4100768n/a
25.02 00:30-12,6-21,35,8 ⇖7,4100769n/a
25.02 00:20-12,6-21,46,0 ⇖7,4100769n/a
25.02 00:10-12,5-21,56,3 ⇖7,4100766n/a
25.02 00:00-12,5-21,66,5 ⇖7,4100768n/a
24.02 23:50-12,5-21,36,2 ⇖7,3100769n/a
24.02 23:40-12,4-20,85,5 ⇖6,4100769n/a
24.02 23:30-12,4-21,05,9 ⇖6,8100769n/a
24.02 23:20-12,3-20,95,8 ⇖6,6100770n/a
24.02 23:10-12,3-21,06,1 ⇖7,5100768n/a
24.02 23:00-12,2-20,95,9 ⇖7,0100766n/a
24.02 22:50-12,3-21,15,8 ⇖6,6100768n/a
24.02 22:40-12,6-21,05,5 ⇖6,0100768n/a
24.02 22:30-12,5-21,15,8 ⇖7,0100769n/a
24.02 22:20-12,4-21,46,6 ⇖8,1100769n/a
24.02 22:10-12,3-20,65,4 ⇖7,1100669n/a
24.02 22:00-12,2-20,14,9 ⇖5,5100671n/a
24.02 21:50-12,1-20,45,6 ⇖7,4100672n/a
24.02 21:40-11,9-20,25,9 ⇐7,8100673n/a
24.02 21:30-11,7-20,25,9 ⇐7,3100674n/a
24.02 21:20-11,7-20,26,2 ⇐8,1100673n/a
24.02 21:10-11,4-20,16,2 ⇐8,3100673n/a
24.02 21:00-11,5-20,05,8 ⇖7,8100671n/a
24.02 20:50-11,5-20,05,8 ⇖7,1100571n/a
24.02 20:40-11,6-20,66,6 ⇖7,8100573n/a
24.02 20:30-11,7-20,66,6 ⇖7,5100573n/a
24.02 20:20-11,6-20,26,2 ⇖7,5100572n/a
24.02 20:10-11,5-19,45,3 ⇖6,8100570n/a
24.02 20:00-11,4-19,04,8 ⇖6,0100570n/a
24.02 19:50-11,3-19,35,0 ⇖6,3100571n/a
24.02 19:40-11,6-19,75,5 ⇖7,8100574n/a
24.02 19:30-11,3-21,28,4 ⇐9,5100474n/a
24.02 19:20-11,2-21,39,0 ⇐10,0100477n/a
24.02 19:10-11,1-21,28,7 ⇐9,6100477n/a
24.02 19:00-11,1-20,57,5 ⇐9,5100479n/a
24.02 18:50-11,2-20,78,2 ⇐9,9100479n/a
24.02 18:40-10,9-20,57,8 ⇐9,4100481n/a
24.02 18:30-11,2-20,06,7 ⇐9,1100480n/a
24.02 18:20-10,9-20,68,3 ⇐9,5100379n/a
24.02 18:10-10,8-20,68,6 ⇐9,8100378n/a
24.02 18:00-10,9-20,78,6 ⇐10,0100378n/a
24.02 17:50-10,7-20,48,6 ⇐10,8100379n/a
24.02 17:40-10,6-20,99,8 ⇐11,1100379n/a
24.02 17:30-10,5-20,48,3 ⇐10,4100279n/a
24.02 17:20-11,1-18,14,2 ⇖5,8100374n/a
24.02 17:10-11,0-17,94,2 ⇖5,1100372n/a
24.02 17:00-10,9-17,84,3 ⇖5,5100370n/a
24.02 16:50-10,8-17,94,4 ⇖5,4100268n/a
24.02 16:40-10,8-18,14,4 ⇖5,4100269n/a
24.02 16:30-10,9-17,63,9 ⇖4,9100270n/a
24.02 16:20-10,9-17,84,1 ⇖5,6100270n/a
24.02 16:10-10,9-16,53,0 ⇖3,8100270n/a
24.02 16:00-10,8-16,63,2 ⇖3,9100270n/a
24.02 15:50-10,6-16,43,3 ⇐5,0100268n/a
24.02 15:40-10,4-15,93,0 ⇖4,0100167n/a
24.02 15:30-10,3-15,22,6 ⇖3,1100165n/a
24.02 15:20-10,2-14,62,1 ⇖3,5100165n/a
24.02 15:10-10,4-15,92,9 ⇖4,0100169n/a
24.02 15:00-10,4-15,62,8 ⇖3,5100168n/a
24.02 14:50-10,4-15,42,4 ⇖2,9100069n/a
24.02 14:40-10,5-15,32,3 ⇖2,8100071n/a
24.02 14:30-10,6-14,72,0 ⇖2,6100072n/a
24.02 14:20-10,50,01,2 ⇑1,6100073n/a
24.02 14:10-10,7-13,91,6 ⇑2,0100073n/a
24.02 14:00-10,40,01,3 ⇗2,4100073n/a
24.02 13:50-10,7-14,21,7 ⇑2,599973n/a
24.02 13:40-10,5-13,91,6 ⇗2,999974n/a
24.02 13:30-10,4-14,01,7 ⇗3,399976n/a
24.02 13:20-10,10,01,2 ⇗3,099975n/a
24.02 13:10-10,00,01,2 ⇖1,899975n/a
24.02 13:00-10,1-13,21,5 ⇑2,199973n/a
24.02 12:50-10,0-13,61,8 ⇑2,499872n/a
24.02 12:40-9,60,00,6 ⇑1,599873n/a
24.02 12:30-9,20,00,5 ⇖0,999874n/a
24.02 12:20-9,50,01,2 ⇖1,699873n/a
24.02 12:10-9,6-12,51,3 ⇖1,899872n/a
24.02 12:00-10,0-13,01,5 ⇑2,099872n/a
24.02 11:50-9,9-12,81,4 ⇖1,999873n/a
24.02 11:40-10,00,01,2 ⇖1,899776n/a
24.02 11:30-9,80,00,5 ⇒1,199778n/a
24.02 11:20-9,80,01,0 ⇑2,399779n/a
24.02 11:10-9,9-13,01,4 ⇑2,999780n/a
24.02 11:00-10,0-12,81,3 ⇑3,099781n/a
24.02 10:50-10,2-13,61,6 ⇗3,099782n/a
24.02 10:40-10,4-14,92,2 ⇗4,199681n/a
24.02 10:30-10,3-13,31,4 ⇗2,899682n/a
24.02 10:20-10,4-15,42,6 ⇗5,099682n/a
24.02 10:10-10,4-14,62,1 ⇗5,399682n/a
24.02 10:00-10,2-15,42,7 ⇒5,499682n/a
24.02 09:50-10,3-16,23,3 ⇒5,699582n/a
24.02 09:40-10,2-15,62,8 ⇒4,599581n/a
24.02 09:30-10,2-16,94,1 ⇒6,699581n/a
24.02 09:20-10,1-16,43,7 ⇒6,099579n/a
24.02 09:10-10,1-16,13,4 ⇒6,099577n/a
24.02 09:00-10,1-16,03,4 ⇒6,699577n/a
24.02 08:50-9,8-17,45,1 ⇒7,399476n/a
24.02 08:40-9,9-17,95,6 ⇒8,199475n/a
24.02 08:30-9,9-16,94,5 ⇒6,899473n/a
24.02 08:20-9,9-16,95,0 ⇒7,399473n/a
24.02 08:10-9,7-14,72,8 ⇗5,699471n/a
24.02 08:00-9,5-14,22,4 ⇗4,199470n/a
24.02 07:50-9,7-14,02,3 ⇗3,699469n/a
Position: (64.66936111,-50.89555556)

[Back]